EW9931 Weather Reports


time (UTC)temp
F
wind
direction
speed
knots
gust
knots
rain 1hr
in
rain 24hr
in
rain mn
in
humidity
%
barometer
mb
20260904103040 52 151 0.0 0.0 0.00 0.00 0.00 40 1001.4
20260904101534 52 141 0.0 0.0 0.00 0.00 0.00 40 1001.1
20260904100033 52 202 0.0 0.0 0.00 0.00 0.00 42 1000.6
20260904094534 51 179 0.0 0.0 0.00 0.00 0.00 44 1000.6
20260904093031 52 128 0.0 0.0 0.00 0.00 0.00 45 1000.7
20260904091531 52 162 0.0 0.0 0.00 0.00 0.00 45 1000.5
20260904090029 52 178 0.9 0.0 0.00 0.00 0.00 45 1000.1
20260904084529 52 181 0.9 0.0 0.00 0.00 0.00 45 1000.2
20260904083029 53 151 1.7 0.0 0.00 0.00 0.00 44 1000.2
20260904081525 53 162 0.9 0.0 0.00 0.00 0.00 42 1000.4
20260904080022 53 208 0.0 0.0 0.00 0.00 0.00 40 1001.3
20260904074524 53 167 0.9 0.0 0.00 0.00 0.00 39 1001.2
20260904073014 54 199 0.9 0.0 0.00 0.00 0.00 39 1001.3
20260904071509 54 171 0.9 0.0 0.00 0.00 0.00 37 1001.4
20260904070005 54 145 0.0 0.0 0.00 0.00 0.00 34 1001.6
20260904064601 54 145 0.0 0.0 0.00 0.00 0.00 36 1001.6
20260904063100 54 145 0.0 0.0 0.00 0.00 0.00 39 1001.4
20260904061601 55 151 0.0 0.0 0.00 0.00 0.00 41 1001.3
20260904060048 55 120 0.0 0.0 0.00 0.00 0.00 36 1002.0
20260904054546 56 162 0.9 0.0 0.00 0.00 0.00 30 1001.5
20260904053041 57 195 0.9 0.0 0.00 0.00 0.00 27 1001.7
20260904051538 57 147 0.0 0.0 0.00 0.00 0.00 25 1001.8
20260904050035 57 208 0.0 0.0 0.00 0.00 0.00 24 1002.3
20260904044525 57 136 0.0 0.0 0.00 0.00 0.00 24 1002.2
20260904043022 57 141 0.0 0.0 0.00 0.00 0.00 26 1002.2
20260904041518 56 155 0.0 0.0 0.00 0.00 0.00 27 1002.4
20260904040014 56 143 0.0 0.0 0.00 0.00 0.00 27 1002.6
20260904034509 57 143 0.0 0.0 0.00 0.00 0.00 29 1002.5
20260904033004 57 143 0.0 0.0 0.00 0.00 0.00 30 1002.5
20260904031602 57 143 0.0 0.0 0.00 0.00 0.00 30 1002.5
20260904030056 57 150 0.0 0.0 0.00 0.00 0.00 32 1003.4
20260904024554 57 155 0.0 0.0 0.00 0.00 0.00 34 1003.0
20260904023050 57 148 0.0 0.0 0.00 0.00 0.00 37 1003.2
20260904021550 57 184 0.0 0.0 0.00 0.00 0.00 41 1003.2
20260904020039 57 185 0.0 0.0 0.00 0.00 0.00 47 1003.4
20260904014542 58 147 0.0 0.0 0.00 0.00 0.00 46 1003.0
20260904013031 58 155 0.0 0.0 0.00 0.00 0.00 43 1003.2
20260904011529 59 184 0.9 0.0 0.00 0.00 0.00 42 1003.4
20260904010021 60 189 0.9 0.0 0.00 0.00 0.00 39 1003.2
20260904004517 61 216 1.7 0.0 0.00 0.00 0.00 33 1003.2
20260904003012 63 174 0.9 0.0 0.00 0.00 0.00 31 1002.8
20260904001507 64 167 1.7 0.0 0.00 0.00 0.00 31 1002.4
20260904000003 65 124 0.9 0.0 0.00 0.00 0.00 28 1002.6
20260903234559 66 196 1.7 0.0 0.00 0.00 0.00 25 1002.2
20260903233056 67 162 0.9 0.0 0.00 0.00 0.00 23 1002.2
20260903231559 67 195 1.7 0.0 0.00 0.00 0.00 23 1002.1
20260903230051 67 208 0.9 0.0 0.00 0.00 0.00 22 1002.8
20260903224547 67 219 1.7 0.0 0.00 0.00 0.00 23 1002.4
20260903223037 67 124 0.9 0.0 0.00 0.00 0.00 23 1002.7
20260903221533 67 224 0.9 0.0 0.00 0.00 0.00 23 1002.5
20260903220029 67 234 1.7 0.0 0.00 0.00 0.00 23 1002.5
20260903214533 69 143 0.9 0.0 0.00 0.00 0.00 21 1002.9
20260903213032 67 131 0.9 0.0 0.00 0.00 0.00 22 1003.0
20260903211515 68 200 0.9 0.0 0.00 0.00 0.00 21 1002.9
20260903210011 68 193 0.9 0.0 0.00 0.00 0.00 21 1003.3
20260903204507 68 152 0.9 0.0 0.00 0.00 0.00 22 1003.4
20260903203003 67 229 0.9 0.0 0.00 0.00 0.00 23 1003.7
20260903201600 66 205 0.9 0.0 0.00 0.00 0.00 22 1004.0
20260903200053 66 244 0.9 0.0 0.00 0.00 0.00 24 1003.3
20260903194554 66 223 0.0 0.0 0.00 0.00 0.00 24 1003.4
20260903193050 66 208 0.9 0.0 0.00 0.00 0.00 22 1004.1
20260903191545 66 230 0.9 0.0 0.00 0.00 0.00 22 1004.2
20260903190049 65 208 0.0 0.0 0.00 0.00 0.00 21 1004.5
20260903184532 64 222 0.9 0.0 0.00 0.00 0.00 21 1005.3
20260903183028 64 206 0.9 0.0 0.00 0.00 0.00 20 1005.2
20260903181537 63 136 0.0 0.0 0.00 0.00 0.00 17 1005.4
20260903180019 63 141 0.0 0.0 0.00 0.00 0.00 18 1005.8
20260903174515 63 219 0.0 0.0 0.00 0.00 0.00 19 1005.8
20260903173010 62 176 0.0 0.0 0.00 0.00 0.00 16 1005.8
20260903171518 62 138 0.0 0.0 0.00 0.00 0.00 17 1005.7
20260903170003 61 157 0.0 0.0 0.00 0.00 0.00 18 1005.4
20260903164600 60 215 0.0 0.0 0.00 0.00 0.00 16 1005.4
20260903163108 60 141 0.0 0.0 0.00 0.00 0.00 15 1005.9
20260903161550 59 200 0.0 0.0 0.00 0.00 0.00 15 1005.9
20260903160044 59 154 0.0 0.0 0.00 0.00 0.00 16 1005.8
20260903154540 58 147 0.0 0.0 0.00 0.00 0.00 15 1006.4
20260903153035 57 136 0.0 0.0 0.00 0.00 0.00 17 1006.2
20260903151531 56 141 0.0 0.0 0.00 0.00 0.00 17 1006.8
20260903150036 55 150 0.0 0.0 0.00 0.00 0.00 19 1006.2
20260903144523 53 150 0.0 0.0 0.00 0.00 0.00 19 1006.3
20260903143018 52 140 0.0 0.0 0.00 0.00 0.00 20 1006.5
20260903141518 52 140 0.0 0.0 0.00 0.00 0.00 21 1006.4
20260903140018 52 140 0.0 0.0 0.00 0.00 0.00 19 1005.8
20260903134508 52 143 0.0 0.0 0.00 0.00 0.00 17 1005.7
20260903133002 52 143 0.0 0.0 0.00 0.00 0.00 14 1005.7
20260903131557 52 143 0.0 0.0 0.00 0.00 0.00 14 1005.7
20260903130052 52 143 0.0 0.0 0.00 0.00 0.00 11 1005.2
20260903124600 53 143 0.0 0.0 0.00 0.00 0.00 9 1004.8
20260903123044 53 143 0.0 0.0 0.00 0.00 0.00 7 1004.9
20260903121542 53 144 0.0 0.0 0.00 0.00 0.00 7 1004.9
20260903120040 53 144 0.0 0.0 0.00 0.00 0.00 7 1004.0
20260903114532 53 130 0.0 0.0 0.00 0.00 0.00 7 1004.0
20260903113026 53 130 0.0 0.0 0.00 0.00 0.00 6 1004.1
20260903111522 53 130 0.0 0.0 0.00 0.00 0.00 7 1004.3
20260903110017 53 130 0.0 0.0 0.00 0.00 0.00 8 1003.9
20260903104514 53 130 0.0 0.0 0.00 0.00 0.00 8 1004.1